Radiation Dose at Monitoring Post of Fukushima Daini Nuclear Power Station
Date,Time,MP-1(microSv/h),MP-2(microSv/h),MP-3(microSv/h),MP-4(microSv/h),MP-5(microSv/h),MP-6(microSv/h),MP-7(microSv/h),Wind Direction,Wind Velocity(m/s),Rain
2024/07/11,00:00,0.143,0.128,0.206,0.194,0.204,0.115,0.076,south-southeast,3.1,No
2024/07/11,00:10,0.142,0.128,0.207,0.193,0.202,0.114,0.074,south-southeast,2.1,No
2024/07/11,00:20,0.142,0.126,0.206,0.192,0.200,0.116,0.075,south-southeast,3.3,No
2024/07/11,00:30,0.144,0.127,0.205,0.192,0.203,0.114,0.075,south-southeast,5.0,No
2024/07/11,00:40,0.143,0.127,0.207,0.192,0.203,0.115,0.074,south-southeast,5.9,No
2024/07/11,00:50,0.143,0.126,0.205,0.191,0.200,0.114,0.075,south,6.1,Yes
2024/07/11,01:00,0.143,0.126,0.206,0.193,0.203,0.113,0.074,south,5.4,Yes
2024/07/11,01:10,0.142,0.128,0.206,0.192,0.202,0.114,0.074,south,2.3,Yes
2024/07/11,01:20,0.142,0.126,0.205,0.192,0.199,0.114,0.075,south,2.4,No
2024/07/11,01:30,0.143,0.127,0.206,0.194,0.203,0.114,0.074,west-southwest,1.7,Yes
2024/07/11,01:40,0.142,0.126,0.206,0.192,0.201,0.114,0.074,west-southwest,1.8,Yes
2024/07/11,01:50,0.143,0.126,0.205,0.191,0.200,0.115,0.075,southwest,1.7,Yes
2024/07/11,02:00,0.142,0.128,0.207,0.193,0.203,0.115,0.074,west,1.2,Yes
2024/07/11,02:10,0.142,0.126,0.205,0.192,0.202,0.114,0.075,west-northwest,1.0,No
2024/07/11,02:20,0.143,0.127,0.206,0.192,0.200,0.115,0.075,-,CALM,No
2024/07/11,02:30,0.143,0.127,0.208,0.193,0.203,0.115,0.074,southwest,1.1,No
2024/07/11,02:40,0.142,0.126,0.206,0.192,0.202,0.114,0.075,south-southwest,0.6,No
2024/07/11,02:50,0.142,0.127,0.206,0.191,0.200,0.115,0.074,west-southwest,1.3,No
2024/07/11,03:00,0.143,0.127,0.207,0.193,0.202,0.114,0.074,southwest,2.6,No
2024/07/11,03:10,0.141,0.126,0.204,0.191,0.202,0.114,0.075,southwest,2.2,No
2024/07/11,03:20,0.142,0.127,0.207,0.190,0.198,0.115,0.074,southwest,2.7,No
2024/07/11,03:30,0.144,0.126,0.206,0.193,0.203,0.114,0.074,southwest,2.9,No
2024/07/11,03:40,0.142,0.127,0.205,0.191,0.203,0.114,0.074,west-southwest,3.0,No
2024/07/11,03:50,0.143,0.127,0.207,0.191,0.201,0.115,0.075,west,2.8,No
2024/07/11,04:00,0.143,0.127,0.207,0.193,0.201,0.115,0.074,west,5.5,No
2024/07/11,04:10,0.141,0.126,0.205,0.191,0.203,0.113,0.075,west,4.8,No
2024/07/11,04:20,0.143,0.127,0.208,0.192,0.201,0.115,0.074,west-northwest,2.0,No
2024/07/11,04:30,0.143,0.126,0.206,0.193,0.202,0.114,0.074,west-northwest,3.1,Yes
2024/07/11,04:40,0.143,0.127,0.204,0.191,0.202,0.113,0.074,southeast,3.3,No
2024/07/11,04:50,0.143,0.127,0.207,0.192,0.201,0.115,0.074,south-southeast,3.0,No
2024/07/11,05:00,0.144,0.127,0.206,0.194,0.203,0.114,0.074,south,4.7,No
2024/07/11,05:10,0.142,0.128,0.205,0.191,0.204,0.115,0.074,south-southwest,4.1,No
2024/07/11,05:20,0.142,0.127,0.207,0.192,0.201,0.114,0.074,southwest,4.2,No
2024/07/11,05:30,0.143,0.126,0.205,0.194,0.201,0.115,0.075,southwest,4.5,No
2024/07/11,05:40,0.141,0.126,0.207,0.192,0.203,0.114,0.074,west-southwest,4.2,No
2024/07/11,05:50,0.142,0.128,0.207,0.192,0.202,0.114,0.073,west,3.3,No
2024/07/11,06:00,0.143,0.126,0.204,0.193,0.200,0.115,0.074,west,2.3,No
2024/07/11,06:10,0.143,0.127,0.205,0.192,0.204,0.115,0.074,west-northwest,4.1,No
2024/07/11,06:20,0.141,0.128,0.207,0.191,0.203,0.115,0.073,west-northwest,8.5,No
2024/07/11,06:30,0.143,0.127,0.207,0.193,0.201,0.114,0.074,northwest,3.7,No
2024/07/11,06:40,0.143,0.126,0.204,0.192,0.200,0.115,0.074,west-northwest,2.2,Yes
2024/07/11,06:50,0.143,0.127,0.205,0.191,0.202,0.114,0.074,north,1.2,Yes
2024/07/11,07:00,0.142,0.127,0.207,0.190,0.204,0.115,0.075,northwest,1.8,Yes
2024/07/11,07:10,0.142,0.127,0.208,0.192,0.202,0.116,0.075,northwest,1.0,Yes
2024/07/11,07:20,0.144,0.127,0.206,0.194,0.201,0.116,0.075,-,CALM,No
2024/07/11,07:30,0.144,0.127,0.205,0.192,0.202,0.115,0.075,west-northwest,0.9,No
2024/07/11,07:40,0.142,0.128,0.208,0.192,0.204,0.115,0.076,west,1.4,No
2024/07/11,07:50,0.142,0.127,0.206,0.191,0.201,0.116,0.074,west,2.3,Yes
2024/07/11,08:00,0.144,0.126,0.205,0.193,0.202,0.115,0.075,west-northwest,1.5,Yes
2024/07/11,08:10,0.143,0.127,0.206,0.193,0.201,0.115,0.076,west-northwest,1.5,Yes
2024/07/11,08:20,0.143,0.128,0.208,0.192,0.204,0.115,0.075,northwest,1.6,Yes
2024/07/11,08:30,0.144,0.127,0.207,0.191,0.204,0.116,0.074,northwest,3.4,Yes
2024/07/11,08:40,0.145,0.126,0.205,0.193,0.201,0.114,0.074,west,2.2,Yes
2024/07/11,08:50,0.144,0.128,0.207,0.194,0.201,0.114,0.075,west,1.2,Yes
2024/07/11,09:00,0.144,0.128,0.208,0.192,0.202,0.116,0.075,northwest,2.6,Yes
2024/07/11,09:10,0.145,0.129,0.208,0.192,0.206,0.117,0.077,west,4.1,Yes
2024/07/11,09:20,0.148,0.131,0.209,0.197,0.205,0.119,0.078,north-northwest,2.1,Yes
2024/07/11,09:30,0.148,0.133,0.211,0.197,0.204,0.119,0.080,north,2.7,Yes
2024/07/11,09:40,0.146,0.132,0.212,0.196,0.206,0.120,0.080,north,2.9,Yes
2024/07/11,09:50,0.149,0.132,0.211,0.199,0.208,0.122,0.081,north,1.2,Yes
2024/07/11,10:00,0.149,0.132,0.213,0.199,0.206,0.120,0.081,north-northwest,1.6,Yes
2024/07/11,10:10,0.147,0.132,0.211,0.198,0.204,0.120,0.081,north,2.5,Yes
2024/07/11,10:20,0.147,0.131,0.210,0.195,0.206,0.120,0.079,northeast,2.5,Yes
2024/07/11,10:30,0.148,0.132,0.211,0.198,0.208,0.119,0.080,northeast,3.0,Yes
2024/07/11,10:40,0.147,0.132,0.211,0.197,0.205,0.119,0.079,northeast,3.6,Yes
2024/07/11,10:50,0.146,0.130,0.209,0.195,0.205,0.119,0.078,north-northeast,3.1,No
2024/07/11,11:00,0.147,0.129,0.207,0.196,0.205,0.118,0.078,north-northeast,3.1,Yes
2024/07/11,11:10,0.146,0.130,0.210,0.196,0.204,0.116,0.077,northeast,1.9,No
2024/07/11,11:20,0.144,0.129,0.208,0.193,0.203,0.116,0.076,north-northeast,1.8,No
2024/07/11,11:30,0.143,0.128,0.205,0.191,0.205,0.116,0.076,northeast,1.7,No
2024/07/11,11:40,0.146,0.129,0.207,0.194,0.203,0.116,0.076,north,1.8,Yes
2024/07/11,11:50,0.143,0.128,0.208,0.193,0.201,0.115,0.075,north-northeast,1.0,Yes
2024/07/11,12:00,0.144,0.127,0.208,0.193,0.201,0.117,0.075,east-southeast,0.7,Yes
2024/07/11,12:10,0.145,0.128,0.206,0.195,0.204,0.118,0.077,-,CALM,Yes
2024/07/11,12:20,0.146,0.130,0.208,0.195,0.204,0.115,0.077,-,CALM,Yes
2024/07/11,12:30,0.145,0.130,0.207,0.194,0.202,0.116,0.076,-,CALM,Yes
2024/07/11,12:40,0.144,0.127,0.207,0.192,0.203,0.117,0.075,east-southeast,1.8,Yes
2024/07/11,12:50,0.145,0.129,0.206,0.194,0.204,0.116,0.076,east-southeast,2.1,Yes
2024/07/11,13:00,0.145,0.128,0.209,0.194,0.202,0.115,0.076,southeast,1.6,Yes
2024/07/11,13:10,0.144,0.127,0.207,0.191,0.201,0.115,0.075,south,0.8,Yes
2024/07/11,13:20,0.143,0.128,0.205,0.191,0.200,0.115,0.075,south,1.3,Yes
2024/07/11,13:30,0.142,0.126,0.204,0.190,0.200,0.115,0.074,south,1.6,No
2024/07/11,13:40,0.143,0.127,0.205,0.192,0.203,0.114,0.075,south,1.4,Yes
2024/07/11,13:50,0.146,0.130,0.209,0.194,0.205,0.115,0.076,southeast,1.9,Yes
2024/07/11,14:00,0.146,0.130,0.208,0.194,0.203,0.117,0.076,south-southeast,2.2,Yes
2024/07/11,14:10,0.145,0.129,0.208,0.193,0.202,0.117,0.076,southeast,1.6,Yes
2024/07/11,14:20,0.147,0.131,0.210,0.198,0.207,0.116,0.076,south-southeast,1.8,Yes
2024/07/11,14:30,0.148,0.130,0.209,0.195,0.204,0.116,0.078,east-southeast,3.0,Yes
2024/07/11,14:40,0.146,0.128,0.208,0.193,0.202,0.117,0.076,south-southeast,2.1,Yes
2024/07/11,14:50,0.145,0.130,0.207,0.194,0.202,0.116,0.075,south-southeast,0.9,Yes
2024/07/11,15:00,0.148,0.130,0.209,0.195,0.205,0.115,0.076,southeast,1.8,Yes
2024/07/11,15:10,0.145,0.129,0.208,0.192,0.203,0.116,0.076,southeast,1.6,Yes
2024/07/11,15:20,0.144,0.128,0.205,0.191,0.202,0.116,0.074,southeast,2.7,Yes
2024/07/11,15:30,0.144,0.128,0.209,0.193,0.201,0.116,0.076,southeast,2.8,Yes
2024/07/11,15:40,0.146,0.129,0.207,0.194,0.204,0.115,0.076,south-southeast,2.8,Yes
2024/07/11,15:50,0.144,0.128,0.205,0.192,0.204,0.115,0.076,south-southeast,2.7,Yes
2024/07/11,16:00,0.142,0.127,0.205,0.189,0.201,0.115,0.075,south,2.9,Yes
2024/07/11,16:10,0.143,0.127,0.205,0.192,0.201,0.115,0.075,south-southeast,2.1,No
2024/07/11,16:20,0.144,0.129,0.207,0.194,0.202,0.114,0.075,south-southeast,2.0,No
2024/07/11,16:30,0.145,0.127,0.206,0.192,0.203,0.114,0.075,south,2.7,No
2024/07/11,16:40,0.142,0.126,0.204,0.190,0.202,0.115,0.075,south-southeast,3.2,No
2024/07/11,16:50,0.142,0.126,0.204,0.189,0.200,0.115,0.073,south,3.2,No
2024/07/11,17:00,0.143,0.126,0.206,0.192,0.200,0.113,0.074,south-southeast,2.0,No
2024/07/11,17:10,0.143,0.128,0.206,0.194,0.201,0.115,0.074,south-southeast,2.7,No
2024/07/11,17:20,0.142,0.127,0.205,0.191,0.203,0.115,0.074,south-southeast,2.2,No
2024/07/11,17:30,0.142,0.126,0.203,0.190,0.203,0.114,0.073,southeast,2.4,No
2024/07/11,17:40,0.141,0.126,0.206,0.192,0.201,0.113,0.074,southeast,2.1,No
2024/07/11,17:50,0.144,0.127,0.206,0.194,0.200,0.113,0.074,east-southeast,1.8,No
2024/07/11,18:00,0.144,0.128,0.203,0.192,0.199,0.115,0.074,east,0.7,No
2024/07/11,18:10,0.143,0.126,0.204,0.190,0.204,0.114,0.073,-,CALM,No
2024/07/11,18:20,0.141,0.125,0.205,0.191,0.203,0.114,0.074,-,CALM,No
2024/07/11,18:30,0.142,0.127,0.206,0.194,0.201,0.114,0.074,-,CALM,No
2024/07/11,18:40,0.143,0.127,0.204,0.192,0.201,0.114,0.074,north-northeast,0.8,No
2024/07/11,18:50,0.142,0.126,0.205,0.190,0.203,0.114,0.073,north,1.3,Yes
2024/07/11,19:00,0.141,0.127,0.206,0.193,0.203,0.113,0.074,north-northeast,0.9,No
2024/07/11,19:10,0.144,0.127,0.206,0.191,0.202,0.115,0.073,-,CALM,No
2024/07/11,19:20,0.143,0.126,0.205,0.191,0.203,0.114,0.073,-,CALM,No
2024/07/11,19:30,0.141,0.126,0.206,0.193,0.203,0.114,0.074,-,CALM,No
2024/07/11,19:40,0.143,0.128,0.205,0.193,0.202,0.115,0.073,-,CALM,No
2024/07/11,19:50,0.143,0.126,0.205,0.190,0.201,0.114,0.074,-,CALM,No
2024/07/11,20:00,0.142,0.127,0.207,0.192,0.204,0.114,0.074,-,CALM,No
2024/07/11,20:10,0.144,0.127,0.204,0.192,0.203,0.115,0.073,east-northeast,1.0,No
2024/07/11,20:20,0.144,0.126,0.206,0.189,0.200,0.113,0.073,-,CALM,No
2024/07/11,20:30,0.142,0.127,0.206,0.193,0.203,0.114,0.074,east-southeast,0.6,No
2024/07/11,20:40,0.143,0.126,0.204,0.192,0.202,0.115,0.074,-,CALM,No
2024/07/11,20:50,0.144,0.126,0.206,0.191,0.200,0.114,0.073,-,CALM,No
2024/07/11,21:00,0.142,0.126,0.206,0.193,0.203,0.113,0.074,east-southeast,0.6,No
2024/07/11,21:10,0.143,0.127,0.205,0.192,0.202,0.114,0.074,southeast,1.1,No
2024/07/11,21:20,0.144,0.126,0.206,0.191,0.201,0.114,0.074,south-southeast,1.7,No
2024/07/11,21:30,0.142,0.127,0.205,0.193,0.204,0.113,0.074,south-southeast,1.9,No
2024/07/11,21:40,0.143,0.127,0.206,0.192,0.201,0.115,0.073,south-southeast,1.4,No
2024/07/11,21:50,0.143,0.128,0.206,0.192,0.200,0.114,0.074,south,1.4,No
2024/07/11,22:00,0.142,0.126,0.204,0.194,0.204,0.114,0.074,south-southwest,1.0,No
2024/07/11,22:10,0.143,0.127,0.207,0.192,0.202,0.115,0.073,south-southeast,0.7,No
2024/07/11,22:20,0.143,0.128,0.207,0.192,0.201,0.115,0.074,south-southeast,0.7,No
2024/07/11,22:30,0.143,0.126,0.207,0.193,0.204,0.114,0.074,-,CALM,No
2024/07/11,22:40,0.143,0.127,0.207,0.191,0.202,0.116,0.074,-,CALM,No
2024/07/11,22:50,0.143,0.127,0.205,0.193,0.201,0.114,0.075,southeast,1.2,No
2024/07/11,23:00,0.143,0.127,0.207,0.192,0.203,0.114,0.073,south,0.9,No
2024/07/11,23:10,0.143,0.127,0.207,0.192,0.201,0.115,0.074,south-southwest,1.6,No
2024/07/11,23:20,0.143,0.127,0.205,0.192,0.201,0.115,0.074,southwest,1.7,No
2024/07/11,23:30,0.145,0.128,0.208,0.192,0.203,0.116,0.074,southwest,1.7,No
2024/07/11,23:40,0.144,0.128,0.207,0.192,0.203,0.116,0.075,south-southwest,1.2,No
2024/07/11,23:50,0.143,0.128,0.206,0.195,0.203,0.116,0.075,south-southwest,1.2,No
